SCP
0 0 0 0 0 0 0 0 0 0 0 0 0 0 0 0 0 0 0 0 0 0
0 0 0 0 0 0 0 0 0 0 0 0 0 0 0 0 0 0 0 0 0 -0
0 0 0 0 0 0 0 0 0 0 0 0 0 0 0 0 0 0 0 0 0 0
0 0 0 0 0 0 0 0 0 0 0 0 0 0 0 0 0 0 0 0 0 0
0 0 0 0 0 0 0 0 0 0 0 0 0 0 0 0 0 0 0 0 0 0
0 0 0 0 0 0 0 0 0 0 0 0 0 0 0 0 0 0 0 0 0 0
0 0 0 0 0 0 0 0 0 0 0 0 0 0 0 0 0 0 0 0 0 0
0 0 0 0 0 0 0 0 0 0 0 0 0 0 0 0 0 0 0 0 0 0
0 0 0 0 0 0 0 0 0 0 0 0 0 0 0 0 0 0 0 0 0 0
0 0 0 0 0 0 0 0 0 0 0 0 0 0 0 0 0 0 0 0 0 0
0 0 0 0 0 0 0 0 0 0 0 0 0 0 0 0 0 0 0 0 0 0
0 0 0 0 0 0 0 0 0 0 0 0 0 0 0 0 0 0 0 0 0 0
0 0 0 0 0 0 0 0 0 0 0 0 0 0 0 0 0 0 0 0 0 0
0 0 0 0 0 0 0 0 0 0 0 0 0 0 0 0 0 0 0 0 0 0
Wind_Speed_500mb
24 19 15 15 12 4 8 16 20 15 17 20 24 30 36 40 39 42 39 35 40 46
23 20 11 8 5 4 6 11 19 23 27 30 33 34 36 39 40 37 36 39 45 47
17 14 10 9 7 9 13 20 27 33 36 32 33 35 35 34 32 34 37 48 50 43
17 15 13 11 9 12 18 24 31 36 41 38 37 35 34 33 34 39 40 42 48 54
13 20 24 19 17 21 25 30 33 28 31 32 33 34 35 34 33 35 41 48 48 45
28 33 30 27 24 24 26 26 25 24 30 36 39 36 36 36 35 38 46 52 46 39
41 38 31 20 18 17 20 20 32 39 44 44 34 28 27 27 30 36 43 44 41 37
40 26 14 14 19 15 20 25 30 36 36 30 28 28 30 31 31 35 35 29 32 34
23 18 13 9 9 20 23 28 31 27 24 25 26 30 29 30 31 30 32 35 37 38
17 6 6 5 13 22 33 23 19 20 22 25 28 31 32 31 33 37 36 35 36 32
14 11 6 8 20 28 22 16 17 19 21 24 25 31 34 34 37 33 32 33 27 18
14 8 5 17 24 16 10 10 13 17 21 23 28 35 32 36 37 35 36 25 21 17
11 5 16 14 5 11 14 17 16 13 21 26 34 30 32 34 36 33 27 24 22 22
1 12 7 10 12 16 15 15 19 17 18 21 26 29 32 34 33 25 25 31 30 26
Wind_Direction_500mb
168 161 160 170 190 224 326 348 349 343 338 331 332 332 327 324 327 333 333 337 337 333
177 175 189 213 251 306 304 327 339 326 322 321 318 319 317 314 317 326 323 323 331 326
210 212 222 221 265 303 323 322 317 318 316 316 315 316 314 313 320 317 320 322 328 332
199 209 233 255 283 281 289 298 303 311 312 313 314 313 314 316 315 321 323 323 327 328
194 208 224 244 266 273 283 300 311 319 319 324 328 332 334 331 330 329 330 331 325 323
211 213 225 237 259 268 289 305 322 337 340 336 334 333 337 335 334 333 334 329 326 326
214 210 213 229 256 304 323 340 339 338 336 335 337 338 338 337 332 323 321 329 323 324
198 203 217 269 320 342 338 333 327 326 332 340 345 343 337 332 331 329 328 324 324 325
198 227 269 316 325 320 322 326 325 327 334 339 338 341 342 338 340 339 335 330 328 324
202 218 210 275 310 321 332 343 344 345 342 342 347 343 340 341 338 335 333 323 322 318
185 201 209 306 320 331 331 342 350 4 0 355 350 344 336 333 329 324 329 336 331 337
193 209 329 325 327 328 10 17 17 8 355 347 343 335 337 339 343 341 340 342 347 337
185 289 321 333 63 63 30 352 343 342 339 341 342 354 355 356 355 5 25 24 9 354
288 328 344 120 90 49 10 36 28 358 336 345 4 5 4 2 2 13 14 2 11 35
Wind_Speed_850mb
24 19 15 15 12 4 8 16 20 15 17 20 24 30 36 40 39 42 39 35 40 46
23 20 11 8 5 4 6 11 19 23 27 30 33 34 36 39 40 37 36 39 45 47
17 14 10 9 7 9 13 20 27 33 36 32 33 35 35 34 32 34 37 48 50 43
17 15 13 11 9 12 18 24 31 36 41 38 37 35 34 33 34 39 40 42 48 54
13 20 24 19 17 21 25 30 33 28 31 32 33 34 35 34 33 35 41 48 48 45
28 33 30 27 24 24 26 26 25 24 30 36 39 36 36 36 35 38 46 52 46 39
41 38 31 20 18 17 20 20 32 39 44 44 34 28 27 27 30 36 43 44 41 37
40 26 14 14 19 15 20 25 30 36 36 30 28 28 30 31 31 35 35 29 32 34
23 18 13 9 9 20 23 28 31 27 24 25 26 30 29 30 31 30 32 35 37 38
17 6 6 5 13 22 33 23 19 20 22 25 28 31 32 31 33 37 36 35 36 32
14 11 6 8 20 28 22 16 17 19 21 24 25 31 34 34 37 33 32 33 27 18
14 8 5 17 24 16 10 10 13 17 21 23 28 35 32 36 37 35 36 25 21 17
11 5 16 14 5 11 14 17 16 13 21 26 34 30 32 34 36 33 27 24 22 22
1 12 7 10 12 16 15 15 19 17 18 21 26 29 32 34 33 25 25 31 30 26
Wind_Direction_850mb
168 161 160 170 190 224 326 348 349 343 338 331 332 332 327 324 327 333 333 337 337 333
177 175 189 213 251 306 304 327 339 326 322 321 318 319 317 314 317 326 323 323 331 326
210 212 222 221 265 303 323 322 317 318 316 316 315 316 314 313 320 317 320 322 328 332
199 209 233 255 283 281 289 298 303 311 312 313 314 313 314 316 315 321 323 323 327 328
194 208 224 244 266 273 283 300 311 319 319 324 328 332 334 331 330 329 330 331 325 323
211 213 225 237 259 268 289 305 322 337 340 336 334 333 337 335 334 333 334 329 326 326
214 210 213 229 256 304 323 340 339 338 336 335 337 338 338 337 332 323 321 329 323 324
198 203 217 269 320 342 338 333 327 326 332 340 345 343 337 332 331 329 328 324 324 325
198 227 269 316 325 320 322 326 325 327 334 339 338 341 342 338 340 339 335 330 328 324
202 218 210 275 310 321 332 343 344 345 342 342 347 343 340 341 338 335 333 323 322 318
185 201 209 306 320 331 331 342 350 4 0 355 350 344 336 333 329 324 329 336 331 337
193 209 329 325 327 328 10 17 17 8 355 347 343 335 337 339 343 341 340 342 347 337
185 289 321 333 63 63 30 352 343 342 339 341 342 354 355 356 355 5 25 24 9 354
288 328 344 120 90 49 10 36 28 358 336 345 4 5 4 2 2 13 14 2 11 35